Regional Weather Roundup
Issued by NWS Cleveland, OH

Home | Current Version | Previous Version | Text Only | Print | Product List | Glossary Off
Versions: 1 2 3 4 5 6 7 8 9 10 11 12 13 14 15 16 17 18 19 20 21 22 23 24 25 26 27 28 29 30 31 32 33 34 35 36 37 38 39 40 41 42 43 44 45 46 47 48 49 50

000
ASUS41 KCLE 221500
RWRCLE
OHIO REGIONAL WEATHER ROUNDUP
NATIONAL WEATHER SERVICE WILMINGTON, OH
1100 AM EDT FRI SEP 22 2017

NOTE: "FAIR" INDICATES FEW OR NO CLOUDS BELOW 12,000 FEET WITH NO
SIGNIFICANT WEATHER AND/OR OBSTRUCTIONS TO VISIBILITY.

OHZ001>008-015>018-024>027-034-035-043-044-221600-
   NORTHWEST OHIO

CITY           SKY/WX    TMP DP  RH WIND       PRES   REMARKS
DEFIANCE       FAIR      81  69  67 CALM      30.12
FINDLAY        FAIR      83  68  60 CALM      30.12S
TOLEDO EXPRESS FAIR      83  72  69 CALM      30.11F
TOLEDO EXEC    FAIR      82  69  64 CALM      30.13S
LIMA           FAIR      81  69  67 CALM      30.13F
$$

OHZ009>014-019>023-028>033-038-089-221600-
   NORTHEAST OHIO

CITY           SKY/WX    TMP DP  RH WIND       PRES   REMARKS
CLE-HOPKINS    FAIR      83  64  52 CALM      30.15S
CLE-LAKEFRONT  FAIR      79  61  53 SE3       30.12F
CUY CO. ARPT   MOSUNNY   84  61  45 VRB5      30.15S
LORAIN-ELYRIA  FAIR      78  62  57 CALM      30.14S
ASHTABULA      FAIR      77  64  64 CALM      30.16F
AKRON-CANTON   PTSUNNY   78  64  61 SE5       30.15S
WOOSTER        NOT AVBL
MANSFIELD      FAIR      82  65  56 VRB5      30.15F
YOUNGSTOWN     PTSUNNY   78  64  61 CALM      30.16R
$$

OHZ042-051>053-060>062-070>072-077>081-221600-
  SOUTHWEST OHIO

CITY           SKY/WX    TMP DP  RH WIND       PRES   REMARKS
CINC-COVINGTON PTSUNNY   81  70  69 CALM      30.14R
CINC-LUNKEN    FAIR      80  72  76 CALM      30.13S
HAMILTON       FAIR      81  71  71 CALM      30.14S
DAYTON         NOT AVBL
WRIGHT-PAT AFB NOT AVBL
DAYTON GENERAL FAIR      81  67  62 CALM      30.13F
WILMINGTON     FAIR      83  68  60 CALM      30.14S
$$

OHZ036-037-039>041-045>050-054>059-063>069-073>076-082>088-221600-
  CENTRAL AND SOUTHEAST OHIO

CITY           SKY/WX    TMP DP  RH WIND       PRES   REMARKS
COLUMBUS       FAIR      81  68  64 W3        30.13F
OSU AIRPORT    FAIR      80  69  69 CALM      30.14S
BOLTON FIELD   SUNNY     79  68  69 CALM      30.15S
RICKENBACK AFB NOT AVBL
NEWARK         FAIR      79  65  62 CALM      30.14S
MARION         FAIR      81  65  58 CALM      30.14F
LANCASTER      FAIR      79  68  69 CALM      30.14F
ZANESVILLE     FAIR      77  67  71 CALM      30.14S
NEW PHILLY     FAIR      78  67  68 CALM      30.15S
$$




USA.gov is the U.S. government's official web portal to all federal, state and local government web resources and services.